This demonstration page uses our WeatherBlox Daily Observations layout. Learn more.

Left ArrowRight Arrow

30.21309, -93.2044

Hourly Observations for August 16, 2022

Temp ( °F °C ) Dew Point ( °F °C ) Humidity (%) Winds ( mph kmh ) Pressure ( in mb ) Visibility ( mi km ) Precip ( " mm )
12:15 am 00:15 Clear 81 27.4 75 24 82 82 SW 6 9 29.94 1014 10 16 0.00 0.00
12:35 am 00:35 Clear 81 27.3 75 24.1 83 83 SW 7 11 29.94 1014 10 16 0.00 0.00
12:55 am 00:55 Clear 81 27.3 75 24.1 83 83 WSW 5 7 29.94 1014 10 16 0.00 0.00
1:15 am 01:15 Clear 82 27.6 76 24.2 82 82 SW 6 9 29.95 1014 10 16 0.00 0.00
1:35 am 01:35 Clear 82 27.6 76 24.2 82 82 WSW 3 6 29.94 1014 10 16 0.00 0.00
1:55 am 01:55 Clear 82 27.6 76 24.2 82 82 SW 6 9 29.94 1014 10 16 0.00 0.00
2:15 am 02:15 Clear 82 27.6 75 24 81 81 WSW 6 9 29.94 1014 10 16 0.00 0.00
2:35 am 02:35 Clear 82 27.8 75 23.8 79 79 SW 6 9 29.94 1014 10 16 0.00 0.00
2:55 am 02:55 Clear 82 27.8 75 23.9 79 79 WSW 6 9 29.94 1014 10 16 0.00 0.00
3:15 am 03:15 Clear 82 27.9 75 23.8 78 78 WSW 5 7 29.94 1014 10 16 0.00 0.00
3:35 am 03:35 Clear 82 27.7 75 23.9 80 80 WSW 5 7 29.94 1014 10 16 0.00 0.00
3:55 am 03:55 Clear 82 27.6 75 24 81 81 WSW 5 7 29.94 1014 10 16 0.00 0.00
4:15 am 04:15 Clear 78 25.5 74 23.4 88 88 Calm 29.93 1013 10 16 0.00 0.00
4:35 am 04:35 Clear 79 25.9 75 23.8 88 88 WSW 3 6 29.93 1013 10 16 0.00 0.00
4:55 am 04:55 Clear 77 24.8 74 23.4 92 92 Calm 29.93 1014 10 16 0.00 0.00
5:15 am 05:15 Clear 78 25.3 75 23.7 91 91 Calm 29.93 1014 10 16 0.00 0.00
5:35 am 05:35 Clear 76 24.5 74 23.3 93 93 Calm 29.93 1014 10 16 0.00 0.00
6:00 am 06:00 Mostly Clear 75 24 73 23 94 94 Calm 29.94 1014 10 16 0.00 0.00
6:52 am 06:52 Mostly Sunny 75 24 73 23 94 94 Calm 29.94 1014 10 16 0.00 0.00
7:45 am 07:45 Mostly Sunny 77 25 75 24 94 94 Calm 29.95 1014 10 16 0.00 0.00
8:46 am 08:46 Mostly Sunny 82 28 75 24 79 79 Calm 29.97 1015 10 16 0.00 0.00
9:55 am 09:55 Mostly Cloudy 86 30 75 24 70 70 SSW 5 7 29.98 1015 10 16 0.00 0.00
10:45 am 10:45 Mostly Cloudy 88 31 73 23 63 63 WSW 3 6 29.99 1016 10 16 0.00 0.00
11:45 am 11:45 Mostly Sunny 90 32 72 22 56 56 undefined N/A 29.99 1016 10 16 0.00 0.00
12:45 pm 12:45 Mostly Sunny 90 32 72 22 56 56 SSW 5 7 29.98 1015 10 16 0.00 0.00
1:50 pm 13:50 Partly Cloudy 91 33 72 22 53 53 S 6 9 29.97 1015 10 16 0.00 0.00
2:45 pm 14:45 Mostly Cloudy 91 33 72 22 53 53 S 10 17 29.95 1014 10 16 0.00 0.00
3:45 pm 15:45 Partly Cloudy 93 34 72 22 50 50 SW 8 13 29.94 1014 10 16 0.00 0.00
4:46 pm 16:46 Mostly Sunny 93 34 73 23 53 53 SSW 12 19 29.92 1013 10 16 0.00 0.00
5:55 pm 17:55 Mostly Sunny 93 34 73 23 53 53 SSW 12 19 29.90 1012 10 16 0.00 0.00
6:51 pm 18:51 Mostly Sunny 90 32 73 23 59 59 SSW 13 20 29.90 1012 10 16 0.00 0.00
7:53 pm 19:53 Mostly Sunny 86 30 73 23 66 66 SSW 8 13 29.91 1013 10 16 0.00 0.00
8:49 pm 20:49 Mostly Clear 84 29 73 23 70 70 S 12 19 29.94 1014 10 16 0.00 0.00
9:54 pm 21:54 Mostly Clear 84 29 73 23 70 70 SSW 5 7 29.94 1014 10 16 0.00 0.00
10:15 pm 22:15 Clear 83 28.4 74 23.5 75 75 SSW 6 9 29.95 1014 10 16 0.00 0.00
10:35 pm 22:35 Clear 82 27.6 74 23.4 78 78 S 7 11 29.93 1013 10 16 0.00 0.00
10:55 pm 22:55 Clear 82 27.8 74 23.5 78 78 SSW 8 13 29.93 1013 10 16 0.00 0.00
11:15 pm 23:15 Clear 82 27.7 74 23.5 78 78 SW 7 11 29.94 1014 10 16 0.00 0.00
11:35 pm 23:35 Clear 82 27.8 74 23.4 77 77 SW 6 9 29.94 1014 10 16 0.00 0.00
11:55 pm 23:55 Clear 82 27.6 74 23.3 77 77 SSW 6 9 29.94 1014 10 16 0.00 0.00

Powered by AerisWeather